カタログに戻る

IRIDIUM 33 DEB

運用中PO
NORAD 46734·DEBRIS·🇺🇸 United States

打ち上げ Sep 14, 1997 から Baikonur Cosmodrome

Loading…

次のパス (今後24時間)

TLE

経年Source: Space-Track

元期: Sep 6, 2026, 06:35 UTC

1 46734U 97051ABR 26249.27443493  .00001384  00000-0  40057-3 0  9990
2 46734  86.2584 245.2183 0039366 164.2144 252.2692 14.43393979668687

AllMySatでIRIDIUM 33 DEBをリアルタイム追跡

Download on the App Store